Wind_Speed
4 3 2 3 2 1 1 1 1 1 1 2 2 3 3 3 3 3 3 3 3 3 3 2 2 3 4 5 6 7 7 6 5 5 4 1 1 1 1 1 3 5 3 3 3 2 2 5 6 5 5 4 4 2 2 3 3 4 3 4 2 3 4 6 8 7 4 2 4 4 3 6 3 2 1 1 2 2 1 3 2 3 4 5 3 3 7 13
5 4 3 3 3 2 1 1 1 1 1 2 2 2 2 3 3 3 3 3 3 3 2 2 1 2 3 5 5 6 6 5 4 6 6 2 2 2 3 0 3 3 3 2 3 4 4 3 4 5 5 3 3 2 2 2 4 4 3 3 3 5 5 5 8 6 3 2 4 3 2 4 4 4 3 2 2 3 1 4 2 4 5 4 4 5 9 14
5 4 3 3 3 3 2 1 1 1 1 2 2 2 2 3 3 3 3 3 3 2 2 1 1 2 3 4 5 6 5 4 4 4 5 3 1 2 3 1 2 2 2 3 4 5 5 2 2 4 5 4 2 3 3 4 2 2 3 2 4 6 4 4 6 6 4 2 5 4 1 1 3 3 2 3 1 1 4 5 2 5 8 6 5 7 12 15
6 4 4 3 3 3 2 1 1 1 1 1 2 2 3 3 3 3 3 3 3 2 2 1 0 1 3 4 5 5 4 4 2 2 3 4 3 4 4 3 2 3 4 4 5 5 5 5 5 5 4 3 3 3 3 3 1 2 3 3 4 3 1 2 6 5 3 2 5 5 3 1 3 2 2 5 3 3 6 7 7 9 9 7 6 8 14 15
6 5 4 3 3 3 2 2 2 2 1 2 3 3 3 3 3 3 3 3 3 3 3 2 1 2 3 4 4 4 4 5 0 1 3 4 5 6 7 5 3 4 4 5 4 5 5 4 6 6 4 2 4 4 2 3 1 3 1 3 4 3 2 1 4 4 3 3 4 6 4 3 2 1 3 7 5 6 5 6 8 9 6 7 8 11 13 14
6 5 5 3 2 2 2 2 2 2 2 2 2 3 3 3 3 3 3 3 3 3 3 3 2 2 2 3 3 3 4 2 2 2 3 4 6 7 7 5 4 4 5 5 4 4 4 5 6 4 3 3 3 3 1 4 2 2 1 1 3 2 1 1 1 2 4 5 5 5 3 2 3 2 2 6 9 7 4 4 5 6 6 7 11 13 12 12
7 6 5 3 3 2 2 2 2 2 2 1 1 2 2 3 3 4 4 3 3 3 3 3 2 2 2 3 2 4 5 0 2 4 4 5 6 6 7 5 5 5 5 6 5 4 4 7 6 3 4 4 1 2 1 3 3 4 1 1 2 2 1 1 1 2 3 5 5 2 2 3 4 3 1 4 12 7 4 3 4 6 6 8 10 11 12 14
9 8 6 4 4 4 3 2 3 2 1 0 0 1 2 2 3 4 4 4 4 4 3 3 3 3 3 2 2 4 3 1 1 6 6 6 6 5 6 5 6 5 7 9 5 4 4 6 4 4 4 2 3 2 2 1 4 5 2 1 1 1 3 1 3 3 2 2 2 2 2 3 4 2 1 9 12 6 3 1 1 2 5 8 9 10 11 12
8 8 6 6 6 5 4 3 2 2 1 1 0 1 2 2 3 4 4 4 4 4 4 4 3 3 2 3 5 3 2 2 2 6 6 6 5 5 4 5 6 5 8 10 6 4 3 2 3 3 3 2 3 2 2 1 1 1 3 2 2 1 4 0 3 3 0 1 2 3 2 3 2 1 4 10 8 3 2 3 1 3 5 7 7 8 10 10
8 7 7 7 6 5 4 4 3 2 2 2 1 0 1 2 3 4 4 4 5 5 5 5 4 4 3 3 6 2 2 2 2 6 6 6 5 4 3 6 7 6 8 8 8 8 4 5 5 5 6 3 3 2 2 2 1 2 3 2 2 1 3 1 2 1 1 2 3 4 4 3 2 1 5 5 2 1 4 2 1 3 6 7 5 6 9 10
9 8 7 7 6 5 4 4 4 4 3 2 1 1 0 1 3 4 4 4 5 6 5 5 5 4 3 5 6 3 2 3 2 6 6 5 4 3 5 7 6 6 8 9 9 8 6 8 8 6 2 1 3 3 2 1 2 2 3 2 3 5 3 2 2 2 1 2 4 4 2 3 3 2 7 3 2 1 3 4 4 4 5 4 4 4 7 9
10 8 7 7 6 5 5 4 4 3 3 2 0 1 1 1 3 4 4 4 5 6 6 6 5 4 3 4 3 4 2 3 2 4 5 5 5 4 7 8 7 7 7 8 7 6 7 7 8 6 1 3 3 2 1 2 3 2 3 2 5 8 4 3 2 3 1 1 4 3 2 4 2 8 9 2 0 1 2 6 5 5 4 3 4 4 5 8
8 8 7 7 6 6 5 4 3 2 2 2 0 2 2 1 2 4 5 5 6 7 7 6 5 4 4 1 2 4 3 1 2 4 5 5 6 6 8 7 8 8 8 10 8 7 7 5 7 7 2 5 3 1 3 4 3 1 3 2 3 7 4 4 2 1 1 2 1 1 3 6 7 12 8 1 2 3 2 8 6 5 4 3 5 4 5 8
7 6 7 7 7 6 5 5 4 2 1 1 0 1 2 2 2 4 6 5 6 7 7 7 5 4 4 1 2 2 3 2 2 5 6 7 7 8 9 8 9 10 10 12 11 9 8 6 9 8 3 4 3 2 4 5 3 1 2 2 2 2 4 6 1 2 3 1 1 3 4 6 8 11 7 2 3 5 6 9 6 5 5 5 5 5 6 8
7 6 5 6 7 6 5 5 4 3 2 2 1 1 2 2 2 4 6 6 7 8 8 7 5 4 3 2 2 1 3 3 4 6 7 8 8 8 8 8 10 11 11 11 12 11 9 7 8 6 1 1 3 4 4 4 4 3 1 2 3 1 5 8 2 3 3 1 2 3 4 7 8 9 5 2 3 5 8 9 6 6 6 6 5 6 5 6
7 6 4 4 5 5 4 4 4 3 2 2 2 2 2 3 5 7 8 8 9 8 8 6 5 5 3 1 1 1 2 4 5 7 8 8 8 8 10 10 10 10 10 9 9 8 9 7 5 3 1 2 4 5 4 3 3 4 1 2 1 2 3 6 2 2 1 1 0 2 3 5 6 6 5 2 3 4 6 9 8 7 7 6 5 5 5 5
6 5 4 3 4 4 4 3 2 2 4 4 4 3 4 6 8 10 10 11 11 8 8 6 5 5 1 1 2 2 1 4 6 8 9 8 8 10 11 9 8 9 8 7 6 5 8 7 1 1 3 3 3 4 4 2 4 3 2 1 3 3 2 3 4 2 2 2 2 2 3 8 8 6 5 2 3 4 6 10 10 8 6 6 5 6 6 6
7 6 5 4 4 3 3 3 3 4 6 6 6 7 8 8 10 11 12 13 11 9 7 4 4 3 2 2 2 1 2 5 7 8 9 10 9 11 10 7 6 7 6 5 4 4 5 4 2 1 3 3 2 5 3 4 4 3 2 1 2 2 2 3 4 2 2 2 2 3 5 12 14 12 10 5 4 5 9 10 8 8 7 7 7 8 8 7
8 7 6 5 5 4 4 4 5 5 6 7 8 10 11 9 9 8 8 7 6 4 2 3 3 3 4 2 1 4 6 7 8 8 9 11 11 11 11 9 7 6 4 1 2 3 2 3 4 2 1 3 4 6 7 7 6 7 6 4 4 3 3 5 5 4 2 1 4 7 8 11 13 13 13 7 4 6 10 9 8 8 7 8 8 9 10 9
10 9 8 7 6 6 5 4 6 6 5 7 10 9 7 6 5 1 1 1 3 5 3 3 3 3 1 1 2 7 8 6 4 4 9 11 12 12 8 6 7 6 3 3 1 2 3 4 2 5 7 8 8 7 6 5 6 7 5 4 4 3 4 5 4 5 2 2 6 9 9 10 11 13 14 8 3 5 11 11 11 11 9 9 10 11 11 11
12 11 9 8 7 7 6 6 6 7 6 8 9 5 3 4 3 1 2 3 5 5 3 1 2 2 1 2 5 8 5 3 3 3 9 9 10 9 2 4 5 3 1 2 2 2 4 4 7 10 7 5 6 6 6 5 5 5 5 3 2 3 5 7 3 4 1 3 6 6 7 11 11 12 14 9 5 9 13 13 15 14 11 10 12 14 12 8
13 12 11 10 9 8 7 6 8 8 7 8 8 4 3 5 5 3 3 1 6 6 5 2 1 2 1 2 6 5 3 3 2 1 7 6 4 5 1 4 6 3 1 2 3 3 3 3 11 8 4 6 5 5 6 5 4 4 3 2 3 3 4 6 3 4 1 3 5 5 7 11 11 11 13 13 12 12 12 13 15 14 11 11 12 12 10 7
14 13 12 11 10 9 6 6 9 8 7 8 7 5 5 6 7 5 4 2 4 3 4 4 3 4 2 1 7 7 3 4 3 4 7 7 2 3 5 5 5 4 3 4 5 4 2 6 9 5 8 7 5 5 7 5 2 2 3 3 3 2 1 3 4 4 0 2 3 5 7 10 9 9 13 15 13 11 12 13 14 11 12 15 12 8 8 10
15 14 13 12 12 9 6 7 10 8 8 8 6 7 9 9 8 5 3 2 3 4 2 5 4 5 6 4 9 10 2 3 4 5 10 9 4 3 5 5 5 5 4 7 7 5 5 6 2 4 7 7 6 4 6 5 2 4 5 6 4 4 5 5 3 4 2 2 3 4 7 8 6 7 10 8 5 8 11 11 12 13 14 14 9 7 9 11
17 16 15 14 13 11 9 9 10 9 8 6 7 9 11 10 8 6 3 3 3 5 3 3 3 5 8 7 10 9 2 2 4 6 13 12 7 4 3 2 4 5 6 6 5 4 7 5 3 6 4 6 7 4 5 7 3 4 5 9 9 7 7 5 3 5 4 3 3 4 5 6 2 4 8 5 4 7 7 6 11 15 12 8 8 10 10 9
19 18 17 16 15 15 12 7 9 11 7 6 10 13 11 10 8 6 4 4 3 4 1 3 3 6 9 7 8 7 3 4 4 5 12 12 7 5 3 1 2 4 6 5 3 3 3 1 4 6 5 5 6 3 6 7 5 2 4 7 9 6 5 5 1 1 1 4 3 3 2 7 4 4 8 6 6 10 8 7 12 13 9 6 8 9 8 8
22 20 20 18 19 19 11 4 10 12 5 6 13 17 12 9 7 4 4 4 4 3 4 2 1 5 7 7 8 8 3 5 1 5 7 8 4 4 4 4 2 2 4 4 1 3 4 2 4 5 6 6 5 3 6 8 7 3 4 4 6 7 6 5 4 3 3 3 3 2 2 5 8 5 6 5 6 10 11 12 15 11 7 7 8 9 8 8
25 24 22 21 23 23 12 7 15 13 4 5 16 19 15 11 6 2 5 0 4 2 4 1 1 4 3 4 6 5 2 2 4 2 1 4 3 4 3 7 7 6 4 5 4 3 3 5 5 7 5 4 5 4 7 10 5 4 2 5 6 6 5 4 5 2 1 3 4 2 3 3 8 5 3 2 4 8 10 14 16 11 7 7 8 8 7 7
27 26 25 24 25 24 14 9 14 11 6 10 18 20 16 12 5 4 5 2 2 1 1 1 3 2 2 4 2 3 2 2 2 2 2 3 1 4 3 6 6 6 2 3 5 2 1 5 7 8 5 5 4 2 5 9 4 3 5 6 5 5 4 5 4 3 3 2 5 5 6 3 7 4 2 1 2 7 10 12 12 9 7 8 8 7 6 5
27 28 27 26 28 26 16 10 12 10 8 12 17 19 15 8 4 5 2 4 1 1 1 2 2 1 6 8 1 3 3 2 1 1 3 1 2 6 2 3 6 6 0 3 2 2 1 1 2 4 4 5 5 3 0 3 4 6 6 6 6 5 4 3 2 3 2 5 5 6 9 6 6 3 4 3 4 6 8 8 9 7 7 8 7 5 5 4
23 28 30 29 31 28 16 11 15 13 10 13 17 18 11 3 3 5 5 2 1 1 2 1 1 4 10 10 4 1 3 2 0 4 3 1 2 4 1 2 4 4 2 4 3 3 2 0 1 2 2 4 6 5 3 3 4 5 4 4 4 3 4 3 4 4 1 5 3 2 4 5 7 6 3 5 6 6 7 8 9 8 8 7 5 4 4 4
15 24 32 33 32 32 21 15 19 16 11 15 18 11 5 3 1 4 5 1 0 4 5 3 2 6 8 6 4 5 4 2 2 5 5 4 4 5 4 5 5 2 2 6 3 3 2 4 2 0 1 4 6 5 4 4 1 2 4 5 4 2 3 2 3 1 3 6 3 1 1 4 9 8 7 9 12 10 9 9 10 9 9 8 5 5 3 2
11 17 30 36 33 35 28 20 21 19 14 18 15 4 4 4 6 8 8 3 2 2 3 4 2 6 9 6 4 5 3 2 4 4 3 4 5 6 5 4 5 3 2 5 3 1 3 4 1 3 1 3 7 6 3 1 3 5 5 6 4 2 1 2 3 2 4 6 3 1 0 3 5 5 10 16 16 12 8 10 11 10 11 10 6 4 3 3
11 13 26 37 36 36 32 24 22 23 21 19 9 4 5 6 6 9 11 5 0 2 3 4 5 6 6 4 3 5 3 2 5 5 3 5 5 6 6 6 6 2 3 3 3 5 5 5 4 7 3 6 10 8 6 6 5 5 4 5 5 5 5 4 4 4 5 4 3 2 1 3 3 3 8 11 10 8 7 9 8 8 10 9 6 5 4 5
12 12 19 31 34 33 33 27 25 28 26 15 4 3 7 8 6 8 9 4 2 2 4 4 6 6 3 2 2 5 4 2 4 5 3 5 5 7 6 8 10 6 5 4 2 3 4 6 6 3 1 8 10 4 4 7 3 3 3 4 3 5 5 2 3 5 2 3 3 2 4 5 4 6 8 8 8 8 7 6 5 8 10 6 7 7 6 7
10 9 13 24 29 30 32 28 29 33 25 11 5 6 7 8 5 4 5 4 5 6 6 3 4 5 4 1 2 4 1 2 5 4 3 4 3 5 6 7 10 10 8 6 3 2 2 5 5 3 2 4 5 1 3 3 3 2 3 4 4 4 6 3 2 1 3 2 4 2 5 6 4 8 9 7 10 11 8 6 7 10 7 5 8 9 7 7
8 6 9 17 25 30 32 31 34 33 19 8 9 9 8 8 4 3 3 3 5 9 9 4 3 5 5 3 4 6 2 2 4 4 3 2 3 6 7 4 6 14 14 7 3 3 4 3 4 2 1 3 1 1 2 3 3 5 3 6 3 2 3 3 1 2 3 3 4 1 5 6 4 6 4 1 6 11 10 10 10 10 7 6 10 11 9 7
8 4 6 13 23 29 32 35 36 26 11 6 9 7 5 7 4 4 4 3 6 8 7 6 6 5 7 6 5 7 6 3 5 5 4 3 5 7 10 5 6 15 16 7 2 3 4 2 4 2 2 3 4 2 1 4 2 4 4 4 4 2 2 2 2 2 1 3 4 3 4 5 6 7 3 3 6 9 10 9 8 9 8 8 9 10 9 6
8 2 5 11 21 26 32 37 30 15 7 8 9 6 4 8 5 3 4 3 4 6 8 7 5 3 5 7 5 6 8 7 8 7 4 5 5 6 12 9 6 11 13 10 6 3 3 3 3 1 2 1 3 2 5 1 2 3 1 2 2 2 4 3 3 3 3 2 3 3 5 7 9 7 6 9 11 10 8 6 7 9 9 7 7 8 7 5
8 2 3 9 19 27 34 32 17 7 6 7 8 5 4 6 5 2 2 2 1 3 4 5 6 5 5 7 5 5 7 7 9 7 5 7 6 5 8 9 5 5 9 11 8 1 2 3 3 2 3 0 3 5 8 9 6 3 3 5 3 1 2 1 1 2 4 3 2 2 6 12 8 5 8 11 11 11 9 8 9 9 7 6 6 6 5 5
6 3 3 11 23 31 30 18 7 6 5 4 6 6 4 3 2 5 6 2 1 2 1 1 5 5 6 6 4 4 6 5 7 6 4 6 7 5 6 10 9 8 7 7 8 4 3 3 3 2 1 4 6 4 5 8 8 7 7 8 8 6 4 2 2 1 2 3 3 3 7 14 7 5 7 8 9 10 10 9 10 8 6 6 6 6 6 6
4 3 4 16 31 33 20 5 4 6 4 4 5 4 3 2 2 5 7 5 3 3 3 2 3 3 4 6 5 5 6 5 6 6 5 8 10 8 7 9 12 14 11 7 8 7 4 3 3 3 4 5 5 2 1 3 3 3 2 3 5 4 4 5 4 4 2 1 1 4 4 13 5 7 7 7 7 7 6 7 7 7 6 6 6 6 6 6
3 2 6 21 37 31 11 3 5 4 4 5 5 3 2 3 3 4 5 7 6 3 1 1 2 3 3 3 4 6 7 5 7 9 6 7 9 7 5 8 11 13 10 4 3 3 3 3 3 3 2 2 2 2 2 2 2 1 1 2 5 6 7 5 4 4 4 3 3 3 5 13 5 3 5 4 3 4 3 5 8 7 5 4 6 7 6 5
2 1 2 19 38 30 8 4 7 5 7 7 5 6 4 2 3 5 6 8 7 4 4 5 4 4 4 3 5 7 9 6 7 11 9 5 6 3 6 12 12 10 7 4 4 6 4 4 5 2 1 2 2 1 1 1 1 3 4 4 6 9 7 3 1 2 3 8 10 6 8 13 4 1 3 3 3 5 6 5 6 6 6 5 6 6 5 4
2 2 2 8 23 20 7 6 7 6 9 10 8 9 7 4 5 9 8 7 6 5 5 6 5 3 2 2 3 4 8 8 6 8 7 5 3 2 3 11 13 10 7 2 4 7 6 5 7 6 6 8 7 6 5 3 3 2 4 6 8 11 12 7 4 3 5 11 11 7 12 15 3 2 4 4 3 6 8 6 4 7 8 6 5 5 4 4
2 3 2 2 6 6 4 5 7 6 8 10 9 8 12 10 5 7 8 6 7 7 5 5 4 3 1 2 3 4 8 10 7 4 4 5 3 2 2 8 11 12 8 5 5 5 2 3 8 12 12 12 13 11 5 8 7 6 10 13 13 14 14 10 5 6 11 12 9 12 20 21 13 8 6 5 6 7 8 6 6 9 9 7 6 6 4 4
3 3 3 3 3 5 4 3 5 6 7 8 6 5 12 14 8 5 7 7 8 10 8 5 5 6 6 8 9 9 9 9 7 5 5 5 2 3 1 3 7 10 8 5 5 6 3 3 9 14 16 16 17 16 9 11 11 14 16 17 16 16 15 13 12 16 16 11 11 17 19 18 22 20 13 9 9 8 8 9 9 9 7 6 5 6 5 5
3 3 2 1 1 4 6 5 6 8 8 8 5 4 10 14 11 8 7 7 8 10 7 6 8 11 12 14 12 9 8 7 7 8 8 5 2 1 1 1 4 6 6 5 5 5 4 6 9 12 16 17 19 17 12 12 12 14 16 18 19 18 18 18 21 25 21 13 14 19 18 17 22 26 20 13 10 10 11 11 7 4 4 5 6 7 7 6
3 2 2 1 1 2 3 1 3 7 9 8 5 6 10 13 15 12 7 6 7 9 10 9 12 14 14 14 12 10 9 8 7 9 10 8 6 4 3 4 3 3 5 5 4 3 4 7 11 14 16 18 21 19 14 14 12 11 12 15 17 19 23 25 27 28 24 17 17 21 24 23 22 24 20 11 11 12 9 5 4 5 7 9 8 8 8 8
3 1 2 0 0 3 3 1 2 3 6 6 4 5 5 9 14 11 8 9 8 9 12 15 16 15 15 15 14 13 13 12 12 12 10 10 9 6 5 6 4 3 6 6 3 2 5 7 9 10 10 13 17 19 17 14 13 12 10 10 14 19 25 27 25 21 18 18 22 25 25 24 21 17 11 7 10 10 7 6 7 9 10 10 9 8 9 9
5 1 1 1 1 3 3 2 3 2 3 4 5 4 4 8 10 7 6 10 11 10 12 17 19 14 13 16 16 16 16 15 15 15 11 11 10 6 5 5 5 5 5 5 3 3 5 5 3 3 6 10 12 17 19 13 8 9 10 10 17 21 21 20 18 17 19 21 23 22 18 20 17 7 5 7 10 11 10 10 11 11 11 11 11 11 11 11
8 2 1 1 2 3 3 2 3 4 4 4 6 7 7 7 8 7 5 5 9 11 11 15 18 14 10 16 19 20 19 17 15 12 6 7 8 6 5 6 6 7 7 6 3 3 5 5 4 5 7 10 13 16 15 10 5 7 11 19 25 22 16 13 15 21 24 20 17 15 16 23 18 5 6 8 10 11 13 13 12 14 14 13 13 13 12 11
Wind_Direction
177 164 164 166 180 185 186 188 175 187 188 198 192 201 210 203 210 208 215 217 213 221 224 239 273 303 319 339 344 346 349 346 340 358 22 3 305 270 177 65 15 10 13 18 43 108 65 35 14 39 93 55 18 349 29 26 55 58 75 102 154 175 201 188 176 193 171 192 204 209 193 148 179 224 167 172 33 33 298 293 276 288 252 230 233 186 166 165
183 179 169 166 189 186 184 193 194 222 215 207 195 211 219 198 204 201 206 213 210 213 217 234 281 304 331 352 349 353 348 342 4 37 36 356 289 213 190 17 9 10 22 51 69 95 91 17 359 49 63 45 354 354 56 8 50 87 106 115 205 194 205 197 171 185 168 111 155 164 180 159 182 173 139 201 300 3 262 267 312 299 265 227 212 191 173 168
187 182 187 182 189 183 182 185 172 235 241 227 211 203 208 198 203 199 197 201 199 195 197 209 267 319 353 360 355 358 346 2 37 32 19 11 3 182 179 144 42 44 49 77 81 82 105 128 82 76 56 52 2 7 52 11 24 138 111 122 235 210 216 219 180 189 201 137 131 151 151 172 211 165 150 189 219 359 221 236 224 246 248 216 193 173 168 170
210 182 195 195 192 189 182 180 158 181 241 233 224 212 197 186 196 199 190 185 185 177 166 156 100 2 9 2 5 358 359 50 50 324 20 42 83 123 131 127 93 68 65 77 83 83 101 112 84 73 71 54 340 18 53 353 301 128 106 168 226 194 151 213 198 200 201 155 136 144 121 181 227 173 163 154 160 261 239 229 213 226 229 203 189 169 170 176
218 193 201 198 194 192 177 180 187 192 203 213 220 211 183 180 192 191 184 181 170 154 146 136 108 39 17 14 12 347 19 62 249 264 70 83 100 110 110 104 90 73 66 72 87 94 95 90 69 51 58 54 349 30 42 319 73 82 71 188 193 158 90 208 210 193 161 116 104 125 142 182 166 154 168 155 189 238 227 221 216 226 216 187 183 171 174 182
201 203 214 208 194 191 178 182 203 214 210 207 210 201 182 182 186 180 179 174 160 148 140 129 103 55 33 31 16 9 66 80 249 178 111 111 109 106 100 87 82 75 64 78 90 95 80 51 60 53 54 58 13 59 46 308 38 95 339 252 204 186 81 44 233 200 150 121 130 153 178 138 112 238 192 177 220 229 205 207 216 239 234 192 173 166 175 186
191 208 218 203 183 189 187 185 216 224 210 191 198 198 189 181 178 178 172 164 155 143 133 119 92 70 52 49 32 45 79 208 249 154 146 123 118 102 88 72 72 74 70 76 73 101 83 49 73 122 87 73 156 103 34 309 33 87 107 293 208 189 237 276 132 175 142 141 176 179 142 137 170 218 49 222 238 237 227 237 244 250 225 185 167 173 187 190
195 207 207 194 187 190 184 189 221 217 181 102 161 195 204 189 176 174 167 159 146 136 127 111 91 85 63 76 93 42 36 289 180 157 152 134 126 95 84 72 71 76 74 64 62 135 105 60 113 155 82 83 169 104 355 313 34 62 126 226 158 195 279 291 106 125 136 160 174 126 152 207 205 174 299 250 245 241 233 219 225 205 173 180 183 189 192 192
199 201 195 194 191 192 191 191 199 174 149 170 189 231 226 202 178 171 166 156 141 134 120 107 93 86 85 91 93 73 294 308 169 166 153 149 129 89 82 73 69 70 75 64 57 105 112 124 182 179 135 144 133 82 345 65 34 98 142 187 127 338 309 19 119 95 78 228 127 164 241 283 253 176 260 258 253 221 152 91 113 142 163 193 197 196 194 196
204 200 191 195 189 196 198 184 174 154 166 180 168 320 244 199 173 169 165 154 141 132 117 112 105 93 111 107 86 100 266 8 156 172 153 155 137 100 75 64 64 72 79 68 59 66 90 163 171 147 133 116 105 81 347 80 132 129 123 147 109 334 309 96 135 60 322 224 165 202 261 304 323 315 252 273 329 133 136 123 219 175 196 207 203 206 202 205
203 198 192 195 189 196 189 178 176 163 163 152 48 4 329 184 162 165 163 150 140 130 121 116 112 110 109 99 103 175 236 49 138 168 153 156 138 98 68 59 58 78 87 73 65 64 89 141 139 122 114 102 105 45 360 108 109 84 112 151 356 345 327 32 24 330 339 215 182 176 257 305 15 262 239 270 9 117 163 204 234 211 223 220 213 221 210 216
197 191 194 197 184 179 176 177 179 169 164 154 148 359 30 165 152 156 152 141 138 126 123 119 117 132 97 72 121 192 169 67 118 156 158 157 131 96 67 59 56 73 99 89 74 69 94 133 116 91 51 136 124 38 99 107 78 56 75 156 317 353 357 342 344 302 317 191 185 142 296 273 205 228 242 290 47 82 176 225 240 229 238 244 232 236 225 226
198 189 190 193 186 180 184 192 197 198 182 155 126 6 14 42 114 141 145 136 135 125 123 122 120 126 101 60 200 187 182 83 129 155 154 146 128 98 74 70 69 76 97 98 89 79 99 133 102 100 117 106 122 165 113 56 47 5 39 85 319 358 339 311 7 338 167 172 200 132 276 258 231 243 253 330 151 123 231 242 238 234 240 242 236 238 239 232
210 203 190 191 197 198 197 201 208 228 245 216 136 24 17 33 72 132 138 133 130 123 120 120 124 117 98 223 220 184 224 215 166 167 159 156 135 104 88 85 85 88 94 93 89 80 93 115 96 99 91 83 136 116 50 15 26 37 22 45 13 9 282 294 338 133 157 196 28 132 245 266 262 262 268 287 194 169 233 245 234 234 236 235 237 234 240 234
217 225 209 195 198 201 200 194 197 222 254 251 175 72 29 51 104 125 128 129 125 120 120 119 123 113 75 291 236 206 239 203 179 175 163 164 149 117 105 103 95 95 94 90 88 79 82 100 83 77 53 17 89 82 34 1 22 37 345 308 358 160 270 304 286 168 162 345 42 146 232 276 276 273 288 300 201 194 238 252 245 239 236 234 237 233 240 243
216 225 225 199 183 179 183 185 191 208 214 191 132 89 61 91 119 124 126 124 120 118 116 114 115 114 94 286 198 235 233 181 176 171 162 168 165 138 121 111 95 94 97 89 89 77 61 68 65 60 127 71 75 86 52 16 353 2 63 234 258 165 279 316 312 227 237 61 20 210 238 281 282 280 318 358 179 197 247 262 259 245 240 236 236 237 238 243
209 211 214 201 172 155 151 155 164 180 173 152 125 105 91 104 120 124 123 119 117 108 104 118 117 104 102 181 188 257 202 152 163 162 158 158 161 148 128 106 92 96 95 81 78 57 33 45 76 346 52 59 84 95 69 348 285 316 22 231 236 194 211 303 308 307 29 78 218 232 236 258 268 274 299 307 175 192 240 255 258 251 245 236 233 239 238 234
206 201 202 199 189 170 149 129 120 141 153 141 124 113 102 107 121 126 126 121 110 88 85 111 98 80 257 211 179 205 108 132 147 147 147 140 144 146 128 105 102 91 66 45 41 33 18 30 65 47 23 14 67 101 139 219 215 186 172 180 247 233 209 264 281 261 87 70 227 233 246 255 266 273 273 260 178 202 241 251 258 257 249 243 237 237 237 233
209 204 200 198 195 188 173 144 136 146 145 134 129 116 103 100 110 122 127 121 117 107 143 202 137 139 212 235 134 106 100 120 136 142 141 134 132 125 106 93 93 80 72 63 358 18 49 52 58 84 237 228 182 167 187 197 161 156 168 154 176 215 244 238 252 259 201 142 235 231 239 250 261 269 271 261 185 216 255 261 262 257 248 243 239 239 237 233
216 207 201 199 195 190 182 165 157 163 156 148 144 125 109 99 82 72 270 256 194 152 136 196 174 140 127 338 120 118 109 106 121 151 146 143 135 115 82 52 53 52 84 157 216 8 79 97 141 212 219 212 199 185 167 149 125 124 131 132 172 197 266 253 252 289 232 179 248 235 239 256 259 266 272 265 191 234 261 262 260 253 243 240 239 240 235 234
220 213 207 199 192 184 177 174 170 174 171 167 165 149 157 156 119 221 243 271 241 184 149 149 137 136 126 158 160 144 122 72 50 140 154 157 147 134 61 26 77 55 304 170 144 31 72 126 219 227 213 195 181 156 127 113 96 96 131 162 225 205 251 256 248 307 281 183 265 267 262 262 255 261 270 269 237 243 248 250 257 252 243 239 237 241 237 234
220 217 211 200 193 182 169 168 173 176 173 179 184 175 183 167 134 127 140 238 268 221 184 148 74 273 241 168 180 159 92 76 47 230 171 154 144 168 158 70 121 170 262 118 110 43 58 212 239 227 135 93 95 120 119 114 100 87 119 157 250 240 268 282 301 336 348 189 268 297 284 268 256 254 262 260 247 246 243 241 251 254 252 247 238 239 236 228
221 218 211 204 195 178 160 164 173 177 179 184 189 164 146 141 125 105 105 103 294 271 169 174 202 227 218 229 193 165 117 152 166 245 191 151 109 172 134 108 130 133 139 173 160 139 142 248 252 200 134 110 75 86 105 102 115 146 150 171 238 246 263 282 298 323 301 186 283 304 288 272 258 250 254 254 250 257 258 250 254 257 251 252 248 235 221 221
220 216 210 204 192 174 159 165 169 180 190 192 194 163 139 135 135 132 102 62 298 291 226 198 195 188 191 200 181 165 147 177 166 204 187 156 121 152 147 138 124 120 186 196 170 173 221 249 259 115 141 136 107 108 128 139 240 239 200 196 214 224 218 232 285 317 324 16 6 328 294 275 251 242 250 265 290 276 262 256 261 256 247 252 261 246 221 220
222 217 210 201 191 175 160 163 178 188 188 199 201 168 143 138 140 143 111 42 301 294 305 213 194 201 192 160 161 162 119 220 214 195 179 163 141 140 155 135 123 173 200 172 156 224 252 243 117 100 112 120 124 157 176 169 208 281 233 207 214 219 222 240 338 4 350 326 339 11 320 285 263 237 253 286 321 276 261 253 256 257 253 245 251 249 233 225
227 221 211 200 189 172 160 176 199 184 175 215 198 167 151 145 136 135 103 47 292 272 266 183 178 188 182 152 151 137 86 259 249 157 166 170 153 119 136 129 72 195 185 142 154 231 239 247 92 117 127 123 134 200 225 177 144 298 253 207 208 198 200 232 251 53 281 260 282 48 11 280 277 219 239 258 264 266 276 275 261 258 258 236 237 247 238 226
231 225 213 202 187 173 167 179 179 168 174 227 186 167 163 152 142 141 87 31 285 209 143 202 205 159 168 169 157 132 168 245 102 120 159 170 169 72 123 168 116 199 175 125 215 249 173 122 73 116 119 120 147 219 223 163 132 246 249 157 159 165 186 200 165 182 239 276 311 38 108 275 279 243 244 250 249 271 282 275 268 262 253 243 241 246 239 228
232 226 216 205 190 184 188 167 162 171 210 186 167 169 169 162 167 128 92 49 276 132 124 250 131 117 125 158 142 114 200 214 110 188 270 128 164 50 121 190 173 180 175 145 209 262 156 161 173 160 134 151 185 224 191 154 146 248 210 124 135 150 159 136 124 172 323 354 305 292 128 262 274 258 308 318 237 259 266 260 264 267 263 257 253 250 243 234
231 224 219 210 194 193 202 181 172 188 196 157 160 169 167 169 177 72 86 205 251 90 99 124 118 64 64 128 123 53 46 35 108 232 6 94 127 52 150 196 148 151 183 167 202 247 131 191 190 156 150 193 198 277 191 163 175 202 134 101 82 79 81 84 103 112 48 320 255 210 167 235 275 232 138 38 215 239 249 251 260 270 274 266 261 262 255 242
228 225 223 211 192 190 193 194 198 193 172 159 161 162 158 161 138 87 143 226 187 90 35 124 156 168 135 141 198 356 62 24 27 92 44 92 23 33 127 157 91 116 19 341 237 244 307 253 194 149 163 182 136 69 123 141 141 142 115 77 60 44 42 54 49 80 56 284 261 206 188 202 272 259 174 196 214 220 231 251 269 280 279 267 261 264 258 246
227 226 221 206 192 189 182 196 206 187 173 168 157 153 146 99 74 138 197 232 57 133 127 143 175 133 145 151 171 180 94 29 118 134 128 153 64 45 96 120 78 78 360 303 287 310 326 205 223 209 153 126 101 72 33 57 106 115 95 90 82 360 9 27 354 45 125 257 269 264 218 206 244 255 228 245 262 241 220 239 262 269 269 266 268 270 251 240
226 225 219 207 197 193 191 204 198 182 180 170 152 147 133 88 130 206 211 131 150 203 162 164 189 156 158 148 151 164 134 81 176 159 151 145 160 179 189 184 161 110 269 237 250 336 265 220 220 265 163 142 117 85 40 12 8 101 104 112 105 339 346 346 315 58 227 254 267 331 307 235 244 249 252 261 265 250 222 228 246 253 259 263 267 271 260 233
230 226 217 209 201 197 200 206 191 178 175 164 148 100 84 143 200 213 209 188 193 214 132 114 127 150 154 147 164 166 132 161 182 169 152 135 170 210 235 224 183 150 194 194 180 208 268 294 195 147 257 196 160 155 154 204 201 172 149 142 140 138 161 271 278 267 266 269 283 334 216 246 266 260 237 240 248 248 229 231 240 246 258 263 263 269 282 258
232 228 217 209 204 202 202 201 189 174 163 157 146 85 131 177 209 204 208 212 145 19 52 97 110 125 149 159 197 175 142 204 177 149 146 140 165 213 232 234 213 149 104 144 168 183 217 282 206 174 205 190 185 192 166 137 162 186 159 142 156 158 168 209 219 223 260 284 294 304 224 207 222 252 232 231 252 266 245 242 253 261 262 267 276 274 269 253
224 228 221 210 204 202 199 195 187 171 157 152 156 155 169 194 210 206 209 195 124 42 37 72 99 118 178 302 293 193 161 200 169 134 159 170 185 203 198 209 203 167 133 174 210 163 196 265 244 228 253 173 184 206 114 109 143 209 126 119 186 186 160 176 202 182 196 313 299 244 227 219 216 263 260 245 261 266 251 258 273 266 263 279 288 268 247 241
220 226 220 208 203 201 195 190 181 168 158 152 170 187 202 207 198 199 196 155 146 134 107 83 79 115 192 250 265 223 172 115 152 152 197 205 222 209 198 213 196 181 180 180 186 144 162 280 291 341 345 175 184 217 112 135 184 163 135 179 214 176 127 120 232 83 67 282 272 214 248 287 306 277 262 240 250 257 261 267 254 255 266 286 279 266 249 239
216 226 221 210 206 200 194 188 177 167 163 170 186 196 212 214 194 148 155 131 137 139 133 162 172 150 179 189 202 208 192 108 158 178 198 195 249 208 197 233 192 190 200 184 186 200 162 258 304 57 228 261 299 113 64 25 120 127 178 206 180 110 94 108 204 5 41 252 271 248 253 284 294 275 285 149 238 253 256 254 252 262 267 253 257 261 262 252
203 224 250 227 211 200 192 185 175 167 168 186 202 219 216 216 204 131 138 118 123 146 162 192 189 166 177 186 194 188 178 171 172 187 186 181 242 204 178 206 204 198 204 181 205 247 148 223 302 55 206 295 10 119 111 358 59 129 190 187 128 143 193 125 163 205 189 238 277 294 283 269 223 231 246 179 213 239 247 248 252 257 243 232 248 257 263 260
180 197 272 229 212 204 191 182 174 169 181 183 200 220 213 226 226 128 145 160 146 169 186 198 186 158 177 175 162 166 183 185 169 177 186 182 232 209 175 191 207 197 194 173 189 230 138 204 273 345 237 310 29 175 187 206 33 54 87 147 118 153 176 164 161 174 178 213 278 314 311 269 227 202 191 198 207 212 218 227 235 241 233 218 232 251 260 251
164 184 264 198 202 199 187 180 176 182 188 187 204 202 191 223 227 209 200 128 78 209 203 205 179 158 184 180 157 168 191 192 174 180 201 189 216 239 190 182 163 162 176 177 192 186 108 207 240 301 316 181 187 212 191 179 167 149 164 179 195 168 124 175 145 113 135 153 213 279 283 268 244 175 178 199 206 200 195 209 223 231 238 229 224 238 252 242
163 215 233 177 186 183 175 175 191 194 184 200 221 214 209 212 188 224 226 129 57 288 14 239 199 173 169 175 187 186 173 177 179 186 219 203 207 239 206 175 153 135 135 168 201 200 163 195 189 177 239 212 222 240 206 193 184 181 190 194 193 173 133 157 239 249 136 152 187 180 265 272 250 162 187 197 197 200 195 208 224 224 223 234 243 243 240 240
196 226 177 171 177 170 162 184 208 183 193 204 210 215 213 210 161 199 201 174 208 268 17 9 241 206 170 173 190 172 153 168 187 189 220 216 211 222 212 181 159 149 143 163 203 199 151 123 144 185 216 220 239 278 220 216 183 163 193 197 180 157 143 165 205 225 176 195 211 111 266 274 244 158 191 194 197 212 195 196 224 235 224 213 233 252 249 248
234 230 155 171 175 167 156 225 195 183 218 204 206 218 205 222 204 178 174 175 188 200 204 243 219 213 215 171 155 165 173 184 190 198 219 227 224 221 181 164 152 151 153 159 197 182 115 124 184 235 287 322 329 350 28 36 83 131 231 171 167 187 192 180 191 192 157 191 200 119 248 264 257 166 210 215 241 252 219 208 221 239 251 221 222 245 258 257
264 287 157 180 178 170 165 215 191 200 216 204 207 208 219 257 200 189 187 182 182 169 192 225 214 204 221 163 142 179 194 193 199 209 216 224 239 236 156 161 160 164 178 177 173 174 170 183 190 204 283 318 316 291 309 337 164 197 221 189 184 195 182 131 96 162 173 212 198 176 244 254 271 2 254 255 273 254 243 240 228 228 240 238 233 237 241 253
273 240 298 204 185 177 188 209 192 200 207 210 214 201 211 239 201 202 202 188 189 176 184 222 215 188 207 145 125 173 198 209 218 212 218 233 256 317 187 176 172 186 202 157 146 171 175 184 180 186 219 232 233 230 222 192 161 199 217 190 190 192 180 180 204 182 219 228 199 185 241 248 267 30 241 237 250 248 245 241 239 243 236 230 243 240 220 222
280 225 206 231 210 202 217 202 192 202 200 206 216 203 207 222 213 195 196 194 199 193 203 230 190 143 130 180 200 216 214 226 230 197 211 227 229 309 238 188 187 201 195 115 123 156 151 204 194 195 210 220 233 239 196 132 145 201 210 195 195 199 191 190 206 208 221 231 217 215 233 248 262 254 229 229 223 228 241 235 229 245 238 218 227 241 228 211
243 248 197 182 227 222 225 215 196 202 194 190 198 191 202 217 227 196 189 197 194 193 214 230 179 169 181 189 214 227 215 221 229 213 214 214 225 307 303 179 211 217 194 153 156 144 116 233 215 213 218 220 234 238 193 151 177 201 203 197 195 197 192 190 208 221 220 223 237 235 231 246 261 255 237 222 219 220 238 240 233 238 240 224 215 221 222 217
220 258 247 218 250 214 219 226 204 205 205 193 193 200 200 208 216 208 194 197 195 190 203 216 202 200 195 190 205 222 209 207 217 221 223 213 183 252 274 234 240 219 181 185 193 152 161 224 215 218 228 230 238 239 201 178 199 202 198 199 194 191 192 198 214 223 220 214 236 245 239 234 247 254 246 222 202 210 224 229 224 212 224 227 213 205 209 212
218 263 280 293 293 244 254 260 188 206 214 203 202 219 212 208 212 210 188 180 203 199 196 208 213 211 208 202 203 211 208 201 211 219 220 216 193 172 205 243 244 194 167 186 216 176 179 221 215 215 227 230 235 239 217 199 211 215 203 198 193 192 196 204 216 223 223 224 235 246 250 244 242 251 252 222 190 205 212 193 172 190 211 219 215 211 211 210
195 232 232 129 252 259 294 329 143 203 221 205 204 225 225 221 220 213 190 186 199 196 195 211 219 212 211 213 212 219 217 208 216 219 208 212 213 193 204 215 189 176 183 183 218 211 191 219 221 215 231 237 238 244 237 218 215 225 220 200 198 203 206 210 217 221 223 231 236 239 249 255 250 246 243 201 182 198 194 178 202 219 222 218 213 214 216 215
214 319 90 68 316 233 242 233 175 203 230 199 197 213 223 232 231 227 214 205 205 200 194 208 220 218 214 217 218 225 226 218 223 226 208 205 214 208 219 213 150 142 190 192 187 181 190 225 237 197 232 243 239 245 247 237 228 240 244 225 215 214 214 214 215 217 218 222 231 237 245 255 252 224 174 180 181 191 204 209 220 229 225 218 212 212 215 217
216 272 109 140 274 231 221 235 185 199 224 201 197 209 213 221 222 223 240 229 218 222 210 204 214 218 218 221 220 223 228 228 233 237 212 200 223 227 228 216 172 156 173 189 190 164 178 208 223 207 226 241 237 241 249 250 249 247 239 233 229 223 219 219 222 226 224 219 224 228 233 246 247 189 159 199 187 191 209 213 218 227 225 219 214 212 213 216
Height
806 806 807 807 808 808 808 809 809 809 809 809 809 810 810 810 811 811 812 812 813 813 814 815 815 815 815 814 814 814 814 814 814 814 814 815 816 816 816 817 817 817 817 817 817 817 817 818 818 818 817 820 825 828 828 830 833 831 838 846 848 857 855 848 853 852 846 843 844 849 849 847 848 851 852 852 852 852 854 854 853 854 853 853 852 853 853 854
806 806 806 807 807 808 808 808 808 808 808 808 809 809 809 810 810 811 811 812 812 813 813 814 814 814 814 814 814 813 813 813 813 814 814 815 815 816 816 817 817 817 817 817 817 817 818 819 818 818 820 824 828 828 828 832 832 836 845 847 845 850 847 844 846 846 846 842 843 849 851 849 846 848 851 850 850 853 852 850 852 852 850 852 852 852 853 854
805 806 806 806 807 807 808 808 808 808 808 808 808 808 809 809 809 810 810 811 811 812 813 813 814 813 814 814 813 813 813 812 814 815 815 815 815 815 816 816 817 817 817 817 817 817 817 819 818 819 822 826 831 830 829 832 834 840 845 840 841 843 843 847 846 843 846 844 844 847 851 850 847 849 849 849 850 852 850 847 848 848 846 848 851 852 852 854
805 805 806 806 806 807 807 807 807 808 808 808 808 808 808 808 809 809 810 811 811 812 812 812 813 812 813 813 813 813 811 814 816 816 815 815 815 815 816 816 817 817 817 817 817 817 817 818 818 820 823 828 832 832 832 835 836 841 842 837 841 846 842 844 845 844 847 848 845 846 851 849 848 851 849 848 850 850 846 842 843 842 841 845 849 851 851 852
804 804 805 805 805 806 806 806 806 807 807 807 807 807 808 808 809 809 810 810 811 811 811 812 812 812 813 812 813 811 812 820 820 815 816 816 815 816 816 817 817 817 817 816 817 817 817 818 819 822 826 829 832 832 834 839 838 839 843 843 845 848 842 843 848 848 849 850 847 847 848 847 848 850 848 848 847 843 840 839 840 839 840 843 846 848 850 851
803 804 804 804 804 805 805 806 806 806 807 807 807 807 807 808 808 808 809 810 810 811 811 811 811 812 812 812 813 810 815 823 818 814 816 816 816 816 816 817 817 817 817 817 817 817 818 819 821 825 828 831 835 834 836 841 840 837 842 847 848 848 843 845 849 848 850 847 845 847 845 847 848 846 849 849 841 837 837 839 840 840 841 842 843 846 847 849
802 803 803 803 804 805 805 806 806 806 806 807 807 807 807 807 807 808 809 809 810 810 811 811 811 812 812 812 812 812 816 818 815 815 816 816 816 817 816 817 817 817 817 817 817 818 820 821 823 828 830 833 837 837 838 840 838 835 839 844 847 849 845 847 850 849 850 845 844 848 846 847 845 845 852 846 835 835 838 840 840 840 841 841 842 844 844 845
802 803 803 804 804 805 806 806 806 806 806 807 807 807 807 807 807 807 808 808 809 810 810 811 811 811 812 812 812 815 817 815 815 815 816 816 816 816 817 817 817 817 817 816 818 818 820 822 825 829 830 834 836 836 839 837 836 836 839 843 845 847 845 848 850 848 849 846 848 849 844 846 847 849 849 838 831 835 838 839 840 840 840 841 841 841 842 843
801 802 803 804 804 805 805 805 806 806 806 807 807 807 806 806 806 807 807 808 808 809 810 810 811 811 811 812 813 817 817 814 814 815 816 816 816 817 817 817 817 817 817 817 818 817 820 824 826 827 829 835 836 836 839 836 837 839 841 843 843 844 845 848 847 847 848 846 848 846 843 847 850 852 842 831 831 836 838 839 840 840 839 840 840 840 841 841
801 802 802 803 804 804 804 805 805 806 807 807 806 807 806 806 806 806 807 807 808 808 809 810 810 811 811 811 814 818 816 813 814 815 816 816 816 817 817 817 817 817 817 818 818 818 820 822 824 824 826 833 835 839 841 838 840 843 843 843 842 843 845 847 844 846 848 846 847 844 843 847 850 851 837 828 835 838 837 838 840 840 837 838 840 840 841 841
801 802 802 802 803 803 804 804 805 805 806 806 807 806 806 806 805 806 806 807 807 808 809 809 810 811 811 812 816 818 815 813 814 814 816 816 817 817 817 818 817 817 818 818 819 819 820 821 823 824 827 832 835 840 842 841 842 844 844 842 843 842 843 846 843 845 846 844 847 845 845 848 851 849 833 829 839 840 836 835 838 838 837 839 840 841 841 841
801 801 802 802 802 803 803 804 804 805 805 806 806 806 805 805 805 806 806 807 807 807 809 809 810 811 811 813 816 815 813 814 814 814 816 816 817 817 817 818 818 818 818 819 820 820 821 822 822 825 830 832 836 840 841 843 845 845 845 842 843 842 841 846 846 848 847 843 846 847 846 846 847 840 829 833 840 839 837 834 835 837 839 841 840 841 840 840
799 800 801 801 802 802 803 804 804 805 805 805 805 805 805 805 805 806 806 807 807 808 808 809 810 810 812 814 814 813 813 814 814 815 816 816 817 817 818 819 818 819 819 819 820 821 822 822 823 826 831 833 838 841 840 845 846 845 847 846 846 845 843 847 851 851 847 846 847 848 847 839 836 833 829 838 840 837 835 832 833 836 838 840 839 840 839 839
798 799 800 801 801 802 803 803 804 804 804 804 805 805 805 805 806 806 806 807 807 808 808 809 810 810 812 814 812 812 813 813 814 814 815 816 817 818 819 819 819 820 820 820 821 822 822 823 824 827 833 836 838 840 842 847 847 847 850 853 858 855 846 846 852 850 845 848 848 848 850 838 830 828 830 839 839 836 831 828 832 835 837 838 838 839 837 836
797 798 799 800 800 801 802 802 803 803 804 804 804 804 805 805 806 806 806 807 807 808 808 809 810 810 814 814 811 812 812 812 813 814 815 816 817 818 819 820 820 821 821 822 822 823 824 824 825 830 837 838 839 841 845 848 850 854 852 854 866 863 849 845 850 851 845 847 849 847 849 841 831 827 831 841 840 837 832 827 832 833 834 836 836 837 835 834
796 798 799 799 799 800 800 801 801 802 803 803 804 804 805 805 805 806 807 807 807 808 808 810 810 811 814 814 811 811 811 812 813 814 815 816 817 818 819 820 821 822 822 823 823 824 824 825 832 839 839 839 841 841 847 852 853 860 857 854 862 862 856 848 847 854 851 847 849 847 846 838 829 827 833 841 840 838 834 828 830 831 832 834 834 834 833 832
796 797 798 798 799 799 799 800 801 801 802 803 804 804 805 805 806 806 807 807 808 808 808 810 809 811 813 811 811 811 811 812 812 814 814 815 817 817 819 820 821 822 822 823 823 825 825 830 839 842 841 845 847 843 851 858 854 859 864 860 861 862 860 852 844 852 854 849 848 848 848 838 827 826 831 837 839 838 833 825 825 828 831 832 832 832 830 830
795 796 797 798 798 798 799 799 800 801 802 803 804 805 805 806 806 807 807 807 808 809 810 810 810 815 814 809 810 811 811 812 812 814 814 815 817 817 818 819 822 822 824 826 826 828 830 835 840 840 843 849 848 846 851 854 847 850 858 857 859 862 864 857 847 849 852 849 849 849 849 841 831 828 827 831 838 836 829 825 825 827 828 829 829 828 826 827
795 795 796 797 798 798 798 799 800 801 802 803 804 805 805 806 807 807 807 807 807 808 809 808 808 814 814 808 809 810 810 812 813 814 815 815 816 817 817 819 822 823 827 831 831 833 835 837 842 843 844 844 844 843 842 843 843 844 850 851 851 853 857 855 849 851 854 849 849 847 844 839 834 830 825 826 834 833 828 827 827 826 826 826 825 823 822 822
794 795 796 797 798 798 798 799 800 801 802 803 804 805 805 807 809 809 809 807 805 805 806 806 806 808 809 809 810 810 811 812 813 814 814 815 815 816 819 821 824 827 831 834 835 839 839 841 844 840 836 837 840 842 841 846 849 848 851 852 854 855 852 849 847 853 857 849 843 842 843 841 836 830 825 824 831 831 827 824 822 821 821 821 819 817 816 817
793 795 795 797 798 798 799 799 800 801 801 802 803 803 803 804 805 806 807 806 805 804 804 805 807 806 807 809 809 809 810 812 813 814 814 815 815 816 822 825 827 832 838 840 840 840 842 844 841 833 833 837 842 846 847 849 850 850 852 853 857 860 853 846 849 854 856 852 843 841 844 841 837 832 825 824 828 824 819 817 813 811 813 814 813 811 811 812
793 794 795 797 798 799 799 799 800 800 801 802 802 802 802 801 801 801 803 804 803 803 805 806 807 807 807 808 809 809 810 812 815 815 814 815 815 817 824 827 829 835 842 843 840 843 847 845 835 833 840 843 846 850 849 849 851 851 855 856 856 859 855 849 853 856 855 852 843 841 843 836 833 832 824 820 819 814 811 809 805 804 806 807 805 806 808 810
792 792 795 796 797 799 799 799 799 800 800 801 801 801 801 800 801 801 802 804 803 802 804 805 805 806 807 808 807 808 809 811 814 814 814 815 816 819 822 826 831 837 841 839 837 844 848 841 835 838 841 840 847 853 850 850 853 852 854 855 854 857 854 846 849 855 854 854 849 846 845 835 828 828 821 814 812 809 807 805 803 804 803 799 798 801 804 806
790 791 794 795 797 798 799 800 799 800 800 800 800 800 800 800 801 801 801 806 807 802 801 802 802 803 803 804 804 806 809 810 811 811 812 813 817 821 821 826 833 837 839 837 837 841 838 836 842 844 840 839 846 853 851 850 851 852 853 853 850 851 851 848 850 852 852 856 857 849 837 824 821 821 813 808 813 811 805 804 802 800 797 795 797 798 799 799
788 790 792 794 797 797 799 800 798 799 799 799 800 798 800 800 800 801 802 809 810 804 801 800 800 799 797 800 802 804 809 809 807 807 809 811 814 819 823 826 830 834 837 839 842 841 836 838 843 843 844 844 845 849 848 847 849 850 848 848 846 844 846 851 853 853 850 850 856 853 836 819 816 818 809 805 810 803 798 801 797 792 792 794 796 794 794 795
786 789 790 793 795 796 799 798 797 799 798 799 797 797 800 799 801 801 803 816 815 802 801 799 797 795 793 799 802 804 810 808 805 806 807 810 810 813 822 827 829 831 836 840 842 840 837 841 841 839 844 845 845 848 846 846 850 850 847 846 847 848 849 852 852 854 851 849 856 857 847 832 816 809 805 802 801 794 792 795 789 786 788 791 792 789 790 793
784 786 788 791 793 795 797 795 796 797 797 796 794 797 799 798 802 799 804 827 817 792 794 798 796 792 791 797 798 801 810 807 804 808 808 809 811 811 818 827 830 830 835 838 839 837 835 841 844 840 841 846 847 845 843 847 848 847 849 850 849 849 849 851 852 854 853 853 857 855 852 846 824 809 808 805 802 799 795 790 781 781 784 785 787 786 787 789
782 784 786 789 791 792 793 792 794 795 794 792 792 797 797 798 803 798 810 832 810 782 787 795 793 790 792 798 796 799 807 803 803 810 809 809 812 812 817 824 824 824 830 831 831 835 834 835 838 838 840 844 843 841 841 843 842 845 856 857 851 850 850 853 854 856 862 861 856 852 855 850 824 811 816 813 806 801 793 783 774 776 781 781 781 782 785 787
779 782 783 786 789 791 792 791 792 792 791 791 793 796 796 800 800 800 821 827 793 777 786 789 791 794 796 800 800 802 804 804 806 809 810 811 811 813 817 822 822 824 830 828 826 832 836 836 836 835 836 837 839 847 847 839 838 850 860 857 855 857 857 858 856 855 863 860 849 848 851 844 819 803 811 816 809 798 787 779 775 777 780 779 778 780 783 786
777 779 781 784 786 789 790 791 791 790 792 792 793 795 797 800 799 811 833 814 780 783 792 789 793 796 798 802 806 805 804 808 810 810 813 814 813 815 818 821 823 826 830 830 830 833 838 842 840 834 833 835 841 852 853 846 845 852 853 848 851 856 855 859 860 858 860 852 842 844 843 840 825 806 804 808 802 793 784 778 775 776 777 774 776 780 782 784
775 776 779 781 782 785 787 789 789 789 792 792 793 796 797 801 806 817 821 794 775 788 793 793 798 797 798 800 803 806 807 811 812 810 813 816 816 818 819 822 824 829 833 831 832 836 837 838 837 834 836 838 840 847 853 854 854 850 842 841 847 852 855 859 861 861 859 846 842 852 852 847 833 809 800 800 795 793 790 781 773 771 771 770 773 778 782 785
772 774 777 778 779 782 783 784 785 789 792 792 794 796 796 808 814 809 797 781 778 785 784 791 798 798 799 797 799 805 806 810 811 810 812 817 819 817 815 816 819 828 833 830 832 836 833 832 833 834 838 836 831 839 852 854 853 848 842 844 852 857 860 859 861 869 863 847 847 858 854 845 827 802 796 797 787 785 790 786 777 773 771 770 773 777 780 785
770 773 775 775 776 778 779 781 784 788 791 792 795 795 798 810 808 792 784 776 776 782 782 787 795 796 797 796 800 805 804 806 810 811 812 815 818 817 814 812 814 817 820 827 834 835 830 831 834 833 833 831 824 829 841 844 847 847 840 842 849 859 864 860 867 876 863 845 851 861 852 836 817 794 787 785 777 776 782 783 780 779 776 774 777 780 781 785
769 771 773 773 774 775 777 781 783 784 789 793 795 796 801 805 791 778 778 774 776 786 787 789 795 798 798 797 800 801 801 807 810 810 812 815 819 819 815 814 815 813 816 826 832 832 828 824 824 825 823 823 819 818 822 829 841 843 838 838 840 845 849 847 850 851 841 838 850 859 846 821 800 785 779 779 778 780 779 778 782 782 780 779 780 783 782 782
768 769 771 772 773 774 775 779 781 783 787 792 796 797 797 794 780 772 772 772 779 789 790 791 795 799 801 801 802 799 797 805 811 811 813 814 813 812 810 809 812 812 814 821 824 829 830 818 815 821 819 818 818 816 818 825 836 842 841 840 837 833 831 839 851 852 848 847 847 847 832 807 792 781 776 780 778 775 775 778 782 778 775 779 777 777 778 778
767 768 769 769 769 771 773 776 779 782 784 789 798 797 786 776 767 764 763 764 774 783 790 795 795 798 803 802 804 802 797 801 809 811 812 812 809 807 805 800 803 807 804 808 816 822 825 820 821 825 821 822 823 819 820 821 825 838 843 837 836 835 828 835 857 870 868 853 835 830 818 801 793 777 769 776 772 768 773 774 774 771 772 777 771 766 770 772
766 767 766 765 766 768 771 774 776 780 783 787 791 785 775 765 758 758 760 762 769 774 781 787 788 791 797 799 801 802 799 800 807 808 808 812 806 798 800 797 796 800 794 796 804 808 810 814 823 828 821 824 830 825 823 824 824 833 837 831 833 839 835 833 844 857 866 855 833 826 817 805 801 782 766 773 771 765 768 768 767 769 771 773 767 763 766 769
765 766 764 762 763 765 769 773 774 777 781 786 786 778 772 766 757 758 762 763 766 768 771 775 777 781 788 793 795 798 797 797 804 806 804 808 798 783 790 793 790 793 790 791 798 802 805 808 822 837 829 825 831 825 823 828 829 828 827 825 827 832 835 839 841 840 848 850 832 823 820 808 795 778 763 765 763 755 757 763 765 763 761 762 762 760 762 766
763 766 763 758 760 763 767 771 773 775 778 781 784 779 772 766 760 760 762 762 762 764 765 766 769 776 782 784 788 795 795 792 799 803 797 799 792 777 779 781 782 790 790 792 797 799 804 803 814 836 835 826 827 824 823 827 830 830 828 828 826 826 828 833 836 831 831 840 832 820 813 786 764 761 756 755 755 748 749 756 756 752 750 752 756 757 758 762
761 764 760 754 757 761 765 770 772 773 775 776 776 774 768 764 763 763 763 765 766 764 763 761 763 771 777 780 782 787 789 788 793 795 788 788 785 776 775 774 779 790 791 793 796 797 803 803 808 829 837 829 821 816 814 814 819 824 826 828 827 829 832 829 832 833 827 831 834 829 811 767 741 750 749 743 747 746 747 748 745 746 750 753 754 756 758 760
759 761 756 751 755 758 763 770 769 768 774 777 774 771 767 764 764 765 765 770 773 768 766 764 761 763 770 777 779 779 784 788 791 790 785 783 779 772 770 769 773 785 793 799 798 795 800 802 806 823 831 821 810 810 812 808 807 809 811 814 814 818 827 827 832 837 830 827 828 831 812 759 734 749 746 738 744 742 742 746 743 743 749 754 756 755 759 761
757 756 752 751 754 756 762 767 764 764 771 773 769 768 767 763 762 764 765 771 775 772 771 771 765 763 765 768 771 775 781 784 788 787 781 777 772 766 765 766 768 774 783 792 791 786 790 796 802 813 816 812 810 817 824 817 809 808 809 809 809 811 815 816 821 826 830 831 827 834 820 760 731 745 742 736 744 742 744 750 746 743 746 752 754 754 760 763
754 752 749 750 752 754 760 763 762 764 766 764 762 763 764 762 762 763 764 769 774 772 772 771 766 764 763 763 767 773 775 777 781 781 775 772 768 764 764 767 770 772 774 781 785 784 789 795 799 802 804 808 813 817 822 821 814 812 812 811 809 807 803 805 810 812 820 825 820 831 822 761 733 750 747 744 753 751 751 752 746 744 748 753 753 751 757 762
753 751 749 749 749 750 754 756 757 761 761 759 762 763 763 762 761 761 762 765 768 768 770 768 763 762 761 760 763 767 768 769 773 773 770 769 768 767 767 766 769 771 769 772 775 778 787 792 795 801 805 806 810 811 813 816 814 809 806 806 804 801 803 809 811 811 813 808 802 815 805 756 741 758 754 751 758 751 749 753 751 747 745 749 753 751 755 761
754 752 750 749 748 747 746 744 747 754 756 756 760 761 762 761 758 757 758 760 761 762 764 764 760 761 763 762 762 764 764 763 764 768 768 766 767 770 769 767 767 767 764 765 765 768 777 782 786 797 803 801 797 791 790 798 809 807 801 802 802 799 801 803 805 811 808 794 794 802 781 745 741 753 749 750 756 749 744 750 756 753 746 748 755 753 752 757
755 752 749 749 748 745 743 739 741 747 750 753 756 756 758 759 755 753 756 758 759 758 758 758 759 764 767 767 765 765 765 763 761 766 769 766 764 768 771 769 767 764 764 766 766 769 775 776 776 778 781 781 774 767 769 781 794 797 791 793 798 796 796 797 801 804 794 784 788 784 761 743 740 742 744 748 750 746 742 744 747 746 745 747 751 753 753 754
755 750 745 745 745 743 743 742 742 743 743 747 749 748 751 755 754 753 755 755 754 755 756 755 757 763 765 765 767 766 764 765 764 766 767 765 764 769 773 773 770 765 765 766 766 771 776 775 772 769 766 762 755 755 765 771 773 776 778 783 790 792 793 797 794 783 776 782 781 763 756 759 746 733 738 744 744 743 743 741 739 738 742 744 745 750 754 753
753 748 742 741 742 740 739 739 741 742 741 743 744 742 744 750 752 753 753 752 751 752 754 755 755 756 755 756 762 764 762 765 766 764 762 764 766 768 770 771 772 769 768 769 768 768 771 770 767 766 765 760 751 751 761 763 759 761 767 772 780 787 790 791 782 766 763 773 768 750 752 759 743 726 727 735 740 739 735 735 737 739 742 743 742 743 745 748
750 748 744 743 743 740 738 737 739 741 742 743 743 741 741 743 744 745 746 750 752 749 750 753 751 750 750 750 753 756 757 761 763 760 757 759 762 765 765 765 769 771 769 769 768 767 767 764 760 760 761 759 754 750 754 758 757 758 763 767 771 778 780 775 765 757 758 764 758 748 746 743 729 719 719 726 732 733 731 734 738 736 734 735 737 738 739 742
747 747 744 744 744 742 741 740 741 741 742 744 745 743 741 740 738 738 739 744 748 747 746 747 744 743 746 747 748 749 747 748 751 751 751 754 757 760 760 755 757 768 771 768 767 767 766 761 756 758 762 761 756 752 753 757 759 758 761 765 768 769 766 761 756 756 762 763 754 748 748 734 716 712 717 722 727 729 730 732 731 729 728 730 734 737 736 736
742 743 742 745 746 742 740 740 741 742 742 743 744 742 741 741 738 737 736 735 737 740 741 741 740 740 743 745 746 744 741 740 741 741 742 748 749 750 752 750 751 763 771 768 764 765 767 763 756 761 768 763 755 753 752 756 763 766 765 763 759 756 754 754 756 754 752 750 748 754 754 730 709 712 719 720 722 726 727 726 725 724 725 726 729 731 731 731
741 742 743 746 746 741 738 738 739 741 738 736 737 737 738 738 736 737 738 736 735 734 734 735 736 738 741 742 741 738 735 735 736 736 739 743 743 742 745 749 748 754 763 766 764 763 765 764 760 762 766 760 752 751 751 758 768 768 758 745 737 739 744 750 751 744 737 739 744 747 737 713 704 715 722 719 721 723 720 720 719 717 717 720 723 724 725 726